KC0HJX Weather Reports


time (UTC)temp
F
wind
direction
speed
knots
gust
knots
rain 1hr
in
rain 24hr
in
rain mn
in
humidity
%
barometer
mb
20260510022503 74 129 1.7 3.5 0.00 0.00 0.00 55 1009.7
20260510022003 74 135 1.7 3.5 0.00 0.00 0.00 56 1009.5
20260510021503 74 120 0.9 3.5 0.00 0.00 0.00 56 1009.2
20260510021003 74 132 1.7 3.5 0.00 0.00 0.00 56 1009.1
20260510020503 74 100 1.7 3.5 0.00 0.00 0.00 56 1009.1
20260510020024 74 121 0.9 2.6 0.00 0.00 0.00 56 1008.8
20260510015503 74 129 1.7 3.5 0.00 0.00 0.00 56 1008.3
20260510015003 74 148 0.9 3.5 0.00 0.00 0.00 56 1008.0
20260510014503 74 129 1.7 3.5 0.00 0.00 0.00 56 1008.0
20260510014003 74 131 0.9 2.6 0.00 0.00 0.00 56 1008.0
20260510013503 75 138 0.9 2.6 0.00 0.00 0.00 55 1008.1
20260510013003 75 154 1.7 2.6 0.00 0.00 0.00 55 1007.9
20260510012503 75 150 0.0 1.7 0.00 0.00 0.00 54 1008.3
20260510012003 76 137 0.0 1.7 0.00 0.00 0.00 55 1007.8
20260510011503 76 142 0.0 2.6 0.00 0.00 0.00 53 1007.6
20260510011003 77 156 0.0 2.6 0.00 0.00 0.00 53 1007.8
20260510010503 77 139 0.9 2.6 0.00 0.00 0.00 52 1008.0
20260510010003 78 155 0.9 1.7 0.00 0.00 0.00 51 1007.9
20260510005503 78 152 0.9 2.6 0.00 0.00 0.00 50 1007.8
20260510005003 78 151 0.9 2.6 0.00 0.00 0.00 49 1008.3
20260510004503 79 185 0.0 2.6 0.00 0.00 0.00 49 1008.4
20260510004024 79 160 0.9 3.5 0.00 0.00 0.00 48 1008.3
20260510003524 80 138 0.9 6.1 0.00 0.00 0.00 47 1007.9
20260510003024 80 156 0.9 6.1 0.00 0.00 0.00 47 1007.9
20260510002503 80 131 1.7 5.2 0.00 0.00 0.00 46 1007.8
20260510002003 81 132 0.9 6.1 0.00 0.00 0.00 46 1008.3
20260510001503 81 149 2.6 6.1 0.00 0.00 0.00 45 1008.3
20260510001024 81 130 1.7 6.1 0.00 0.00 0.00 45 1008.4
20260510000503 82 122 1.7 6.1 0.00 0.00 0.00 44 1008.2
20260510000003 82 136 2.6 9.6 0.00 0.00 0.00 43 1007.8
20260509235503 83 117 1.7 9.6 0.00 0.00 0.00 43 1008.0
20260509235003 83 136 3.5 9.6 0.00 0.00 0.00 42 1008.1
20260509234524 84 147 4.3 9.6 0.00 0.00 0.00 42 1007.9
20260509234003 84 126 4.3 8.7 0.00 0.01 0.00 41 1008.0
20260509233503 84 145 2.6 7.8 0.00 0.01 0.00 39 1008.1
20260509233003 84 128 4.3 8.7 0.00 0.01 0.00 37 1008.4
20260509232524 84 154 2.6 8.7 0.00 0.01 0.00 38 1008.3
20260509232003 84 145 3.5 8.7 0.00 0.02 0.00 36 1007.7
20260509231503 85 138 3.5 8.7 0.00 0.02 0.00 36 1008.3
20260509231003 85 119 4.3 8.7 0.00 0.02 0.00 34 1008.0
20260509230524 85 131 3.5 7.8 0.00 0.02 0.00 34 1008.4
20260509230003 85 136 2.6 9.6 0.00 0.04 0.00 34 1008.6
20260509225503 85 120 3.5 9.6 0.00 0.10 0.00 34 1008.5
20260509225003 85 133 4.3 8.7 0.00 0.13 0.00 32 1008.7
20260509224503 85 183 0.0 7.8 0.00 0.13 0.00 33 1008.8
20260509224004 85 134 3.5 7.8 0.00 0.13 0.00 33 1008.7
20260509223503 85 142 4.3 7.0 0.00 0.13 0.00 32 1009.3
20260509223003 85 146 0.9 7.8 0.00 0.13 0.00 32 1009.0
20260509222503 85 164 2.6 7.8 0.00 0.13 0.00 32 1009.0
20260509222024 85 142 3.5 7.8 0.00 0.13 0.00 30 1009.1
20260509221503 85 118 2.6 7.0 0.00 0.13 0.00 30 1008.9
20260509221003 85 197 2.6 8.7 0.00 0.13 0.00 30 1009.1
20260509220503 85 114 1.7 8.7 0.00 0.13 0.00 30 1009.0
20260509220003 86 146 1.7 8.7 0.00 0.13 0.00 31 1009.2
20260509215503 86 111 4.3 7.8 0.00 0.13 0.00 31 1008.9
20260509215003 86 124 2.6 7.8 0.00 0.13 0.00 31 1009.2
20260509214503 86 129 4.3 7.8 0.00 0.13 0.00 30 1009.1
20260509214003 87 201 0.9 7.8 0.00 0.13 0.00 30 1008.8
20260509213524 86 144 4.3 7.8 0.00 0.13 0.00 30 1009.2
20260509213003 87 118 3.5 7.8 0.00 0.13 0.00 31 1009.3
20260509212503 86 109 3.5 7.8 0.00 0.13 0.00 30 1009.1
20260509212003 86 113 2.6 9.6 0.00 0.13 0.00 29 1009.4
20260509211503 86 115 4.3 9.6 0.00 0.13 0.00 32 1009.1
20260509211024 86 104 2.6 8.7 0.00 0.13 0.00 31 1009.3
20260509210524 86 136 2.6 8.7 0.00 0.13 0.00 32 1009.5
20260509210003 86 147 2.6 8.7 0.00 0.13 0.00 32 1009.3
20260509205503 86 143 2.6 8.7 0.00 0.13 0.00 34 1009.6
20260509205003 86 136 2.6 8.7 0.00 0.13 0.00 33 1009.9
20260509204524 87 125 2.6 7.0 0.00 0.13 0.00 34 1009.7
20260509204003 87 129 2.6 9.6 0.00 0.13 0.00 35 1009.8
20260509203503 87 102 3.5 9.6 0.00 0.13 0.00 32 1009.9
20260509203003 86 110 4.3 8.7 0.00 0.13 0.00 33 1009.8
20260509202524 86 122 2.6 8.7 0.00 0.13 0.00 35 1009.9
20260509202003 86 63 2.6 9.6 0.00 0.13 0.00 34 1009.8
20260509201503 85 112 4.3 9.6 0.00 0.13 0.00 37 1010.0
20260509201003 86 129 4.3 9.6 0.00 0.13 0.00 35 1010.1
20260509200503 86 101 3.5 9.6 0.00 0.13 0.00 36 1010.1
20260509200003 86 131 3.5 9.6 0.00 0.13 0.00 37 1010.0
20260509195503 86 163 0.9 8.7 0.00 0.13 0.00 36 1010.4
20260509195003 86 155 2.6 8.7 0.00 0.13 0.00 37 1010.2
20260509194503 86 134 3.5 6.1 0.00 0.13 0.00 38 1010.4
20260509194024 86 147 2.6 7.8 0.00 0.13 0.00 37 1009.9
20260509193503 86 151 2.6 8.7 0.00 0.13 0.00 39 1010.6
20260509193003 85 121 3.5 8.7 0.00 0.13 0.00 38 1010.4
20260509192503 85 84 3.5 7.8 0.00 0.13 0.00 40 1010.2
20260509192024 85 84 3.5 7.8 0.00 0.13 0.00 41 1010.7
20260509191524 84 83 3.5 7.0 0.00 0.13 0.00 38 1010.5
20260509191003 85 106 3.5 7.0 0.00 0.13 0.00 37 1010.4
20260509190524 84 77 2.6 7.0 0.00 0.13 0.00 39 1011.0
20260509190003 84 79 3.5 7.0 0.00 0.13 0.00 37 1010.6
20260509185503 84 101 3.5 7.0 0.00 0.13 0.00 39 1010.8
20260509185003 84 122 2.6 7.0 0.00 0.13 0.00 40 1010.8
20260509184503 84 119 2.6 7.0 0.00 0.13 0.00 39 1010.7
20260509184003 84 138 2.6 7.0 0.00 0.13 0.00 39 1011.1
20260509183503 84 136 1.7 7.0 0.00 0.13 0.00 38 1011.0
20260509183024 83 110 0.9 7.8 0.00 0.13 0.00 41 1011.2
20260509182524 83 129 3.5 7.8 0.00 0.13 0.00 46 1011.5
20260509182003 83 128 4.3 7.8 0.00 0.13 0.00 43 1011.1
20260509181503 83 255 0.9 5.2 0.00 0.13 0.00 41 1011.2
20260509181024 83 144 2.6 7.0 0.00 0.13 0.00 44 1011.1
20260509180503 83 122 2.6 7.0 0.00 0.13 0.00 43 1010.9
20260509180003 83 150 0.9 7.8 0.00 0.13 0.00 42 1011.8
20260509175503 83 109 0.9 7.8 0.00 0.13 0.00 38 1011.5
20260509175003 83 116 1.7 6.1 0.00 0.13 0.00 37 1011.6
20260509174503 82 115 1.7 6.1 0.00 0.13 0.00 39 1011.6
20260509174003 82 163 1.7 5.2 0.00 0.13 0.00 41 1011.7
20260509173503 82 250 0.9 6.1 0.00 0.13 0.00 46 1012.0
20260509173003 81 117 1.7 6.1 0.00 0.13 0.00 48 1011.5
20260509172503 81 113 3.5 7.0 0.00 0.13 0.00 43 1012.1
20260509172003 81 176 0.9 7.0 0.00 0.13 0.00 47 1012.4
20260509171524 80 111 4.3 7.0 0.00 0.13 0.00 51 1011.9
20260509171003 80 147 2.6 6.1 0.00 0.13 0.00 54 1012.4
20260509170503 79 238 0.9 6.1 0.00 0.13 0.00 53 1012.2
20260509170003 79 180 0.9 7.8 0.00 0.13 0.00 58 1012.3
20260509165503 79 144 3.5 8.7 0.00 0.13 0.00 59 1011.6
20260509165003 79 127 3.5 8.7 0.00 0.13 0.00 60 1011.8
20260509164503 78 170 3.5 7.8 0.00 0.13 0.00 65 1012.2
20260509164024 78 184 0.9 5.2 0.00 0.13 0.00 66 1012.2
20260509163503 77 139 2.6 3.5 0.00 0.13 0.00 68 1013.0
20260509163003 76 222 0.9 2.6 0.00 0.13 0.00 72 1012.5
20260509162524 75 166 0.0 2.6 0.00 0.13 0.00 73 1012.4
20260509162003 75 192 0.0 3.5 0.00 0.13 0.00 73 1012.7
20260509161503 75 250 0.0 7.0 0.00 0.13 0.00 70 1012.4
20260509161003 76 131 2.6 7.0 0.00 0.13 0.00 68 1012.6
20260509160503 76 153 1.7 7.0 0.00 0.13 0.00 70 1012.2
20260509160003 75 196 0.9 1.7 0.00 0.13 0.00 73 1012.5
20260509155503 74 158 0.0 1.7 0.00 0.13 0.00 77 1012.4
20260509155003 73 159 0.9 1.7 0.00 0.13 0.00 78 1012.6
20260509154503 72 148 0.9 1.7 0.00 0.13 0.00 77 1012.1
20260509154003 72 151 0.0 3.5 0.00 0.13 0.00 77 1012.3
20260509153503 72 252 0.0 6.1 0.00 0.13 0.00 75 1011.9
20260509153003 72 134 1.7 6.1 0.00 0.13 0.00 72 1012.1
20260509152503 72 133 3.5 6.1 0.00 0.13 0.00 71 1012.1
20260509152003 73 125 1.7 6.1 0.00 0.13 0.00 70 1012.0
20260509151503 73 121 2.6 6.1 0.00 0.13 0.00 69 1012.3
20260509151003 74 119 3.5 6.1 0.00 0.13 0.00 71 1012.3
20260509150524 73 83 1.7 6.1 0.00 0.13 0.00 75 1011.9
20260509150024 72 113 1.7 3.5 0.00 0.13 0.00 77 1011.9
20260509145503 71 147 0.0 3.5 0.00 0.13 0.00 80 1011.8
20260509145003 69 110 2.6 3.5 0.00 0.13 0.00 84 1011.8
20260509144503 68 112 0.9 2.6 0.00 0.13 0.00 88 1012.1
20260509144024 67 139 1.7 3.5 0.00 0.13 0.00 93 1011.9
20260509143524 65 127 0.9 3.5 0.00 0.13 0.00 96 1011.9
20260509143003 64 87 1.7 3.5 0.00 0.13 0.00 97 1011.8
20260509142503 63 223 0.9 1.7 0.00 0.13 0.00 98 1012.0
20260509142024 63 267 0.9 0.9 0.00 0.13 0.00 98 1012.1
20260509141524 62 263 0.0 0.9 0.00 0.13 0.00 98 1012.2
20260509141003 62 225 0.0 0.9 0.00 0.13 0.00 98 1012.0
20260509140503 62 260 0.0 0.9 0.00 0.13 0.00 98 1012.1
20260509140004 62 0 0.0 0.9 0.00 0.13 0.00 98 1012.0
20260509135503 61 73 0.0 0.9 0.00 0.13 0.00 98 1011.6
20260509135003 61 0 0.0 0.9 0.00 0.13 0.00 98 1012.0
20260509134503 61 0 0.0 1.7 0.00 0.13 0.00 98 1011.7
20260509134003 61 97 0.0 1.7 0.00 0.13 0.00 98 1011.6
20260509133503 61 101 0.9 1.7 0.00 0.13 0.00 99 1011.8
20260509133024 60 82 0.9 1.7 0.00 0.13 0.00 99 1011.9
20260509132503 59 0 0.0 0.0 0.00 0.13 0.00 99 1011.4
20260509132003 58 0 0.0 1.7 0.00 0.13 0.00 99 1011.4
20260509131503 58 0 0.0 1.7 0.00 0.13 0.00 99 1012.1
20260509131003 57 238 0.0 1.7 0.00 0.13 0.00 99 1011.4
20260509130524 56 0 0.0 0.0 0.00 0.13 0.00 99 1011.9
20260509130003 55 0 0.0 0.0 0.00 0.13 0.00 98 1011.4
20260509125503 54 0 0.0 0.0 0.00 0.13 0.00 98 1011.1
20260509125003 54 0 0.0 0.0 0.00 0.13 0.00 98 1011.1
20260509124503 54 0 0.0 0.9 0.00 0.13 0.00 98 1010.9
20260509124024 53 0 0.0 0.9 0.00 0.13 0.00 98 1011.1
20260509123503 53 205 0.0 0.9 0.00 0.13 0.00 98 1011.1
20260509123003 53 0 0.0 0.0 0.00 0.13 0.00 98 1011.4
20260509122503 53 0 0.0 0.0 0.00 0.13 0.00 98 1011.1
20260509122003 52 0 0.0 0.0 0.00 0.13 0.00 98 1011.0
20260509121503 52 0 0.0 0.0 0.00 0.13 0.00 98 1010.7
20260509121003 52 0 0.0 0.0 0.00 0.13 0.00 97 1011.3
20260509120503 52 0 0.0 0.0 0.00 0.13 0.00 97 1010.7
20260509120003 52 0 0.0 0.0 0.00 0.13 0.00 97 1010.6
20260509115503 52 0 0.0 0.0 0.00 0.13 0.00 97 1010.9
20260509115024 52 0 0.0 0.9 0.00 0.13 0.00 97 1010.8
20260509114524 52 0 0.0 0.9 0.00 0.13 0.00 97 1010.6
20260509114003 52 0 0.0 0.0 0.00 0.13 0.00 97 1010.6
20260509113503 52 0 0.0 0.0 0.00 0.13 0.00 97 1010.5
20260509113003 52 0 0.0 0.0 0.00 0.13 0.00 97 1010.6
20260509112503 52 0 0.0 0.0 0.00 0.13 0.00 97 1010.8
20260509112024 52 0 0.0 0.0 0.00 0.13 0.00 97 1010.1
20260509111503 52 0 0.0 0.0 0.00 0.13 0.00 97 1010.3
20260509111003 52 0 0.0 0.0 0.00 0.13 0.00 97 1010.4
20260509110503 52 0 0.0 0.0 0.00 0.13 0.00 97 1010.5
20260509110003 52 0 0.0 0.0 0.00 0.13 0.00 97 1010.3
20260509105503 52 0 0.0 0.0 0.00 0.13 0.00 97 1010.4
20260509105003 53 0 0.0 0.0 0.00 0.13 0.00 97 1010.4
20260509104503 53 0 0.0 0.0 0.00 0.13 0.00 97 1010.6
20260509104003 53 0 0.0 0.0 0.00 0.13 0.00 97 1010.3
20260509103503 53 0 0.0 0.0 0.00 0.13 0.00 97 1010.7
20260509103003 53 0 0.0 0.0 0.00 0.13 0.00 97 1010.7
20260509102503 53 0 0.0 0.0 0.00 0.13 0.00 97 1010.4
20260509102003 53 0 0.0 0.0 0.00 0.13 0.00 97 1010.7
20260509101524 54 0 0.0 0.0 0.00 0.13 0.00 97 1010.5
20260509101003 54 0 0.0 0.0 0.00 0.13 0.00 97 1010.7
20260509100503 54 0 0.0 0.0 0.00 0.13 0.00 97 1010.8
20260509100003 54 0 0.0 0.0 0.00 0.13 0.00 97 1010.9
20260509095503 54 0 0.0 0.0 0.00 0.13 0.00 97 1010.8
20260509095003 54 0 0.0 0.0 0.00 0.13 0.00 97 1010.8
20260509094503 54 0 0.0 0.0 0.00 0.13 0.00 97 1011.1
20260509094003 54 0 0.0 0.0 0.00 0.13 0.00 97 1011.3
20260509093524 54 0 0.0 0.0 0.00 0.13 0.00 97 1011.1
20260509093003 54 0 0.0 0.0 0.00 0.13 0.00 97 1011.2
20260509092524 55 0 0.0 0.0 0.00 0.13 0.00 97 1011.1
20260509092003 55 0 0.0 0.0 0.00 0.13 0.00 97 1010.7
20260509091503 55 0 0.0 0.0 0.00 0.13 0.00 97 1010.7
20260509091003 55 0 0.0 0.0 0.00 0.13 0.00 97 1011.1
20260509090503 55 0 0.0 0.0 0.00 0.13 0.00 97 1010.8
20260509090003 55 0 0.0 0.0 0.00 0.13 0.00 97 1010.9
20260509085524 55 0 0.0 0.0 0.00 0.13 0.00 97 1011.2
20260509085003 55 0 0.0 0.0 0.00 0.13 0.00 97 1010.8
20260509084524 55 0 0.0 0.0 0.00 0.13 0.00 97 1010.7
20260509084003 55 0 0.0 0.0 0.00 0.13 0.00 96 1010.9
20260509083503 55 0 0.0 0.0 0.00 0.13 0.00 96 1010.9
20260509083003 56 0 0.0 0.0 0.00 0.13 0.00 96 1010.7
20260509082503 56 0 0.0 0.0 0.00 0.13 0.00 96 1011.0
20260509082003 56 0 0.0 0.0 0.00 0.13 0.00 96 1010.7
20260509081503 56 0 0.0 0.0 0.00 0.13 0.00 96 1011.0
20260509081003 56 0 0.0 0.0 0.00 0.13 0.00 96 1010.7
20260509080503 56 0 0.0 0.0 0.00 0.13 0.00 96 1011.3
20260509080003 56 0 0.0 0.0 0.00 0.13 0.00 96 1011.1
20260509075503 56 0 0.0 0.0 0.00 0.13 0.00 96 1011.3
20260509075003 56 0 0.0 0.0 0.00 0.13 0.00 96 1011.6
20260509074503 56 0 0.0 0.0 0.00 0.13 0.00 96 1011.5
20260509074024 57 0 0.0 0.0 0.00 0.13 0.00 96 1011.1
20260509073524 57 0 0.0 0.0 0.00 0.13 0.00 96 1011.3
20260509073003 57 0 0.0 0.0 0.00 0.13 0.00 96 1011.3
20260509072524 57 0 0.0 0.0 0.00 0.13 0.00 96 1011.6
20260509072024 57 0 0.0 0.0 0.00 0.13 0.00 96 1011.7
20260509071524 57 0 0.0 0.0 0.00 0.13 0.00 96 1011.5
20260509071003 57 0 0.0 0.0 0.00 0.13 0.00 96 1011.3
20260509070503 58 0 0.0 0.0 0.00 0.13 0.00 96 1011.3
20260509070003 58 0 0.0 0.0 0.00 0.13 0.00 96 1011.6
20260509065503 58 0 0.0 0.0 0.00 0.13 0.00 96 1011.5
20260509065003 58 0 0.0 0.0 0.00 0.13 0.00 96 1011.4
20260509064503 58 0 0.0 0.0 0.00 0.13 0.00 96 1011.4
20260509064024 58 0 0.0 0.0 0.00 0.13 0.00 96 1011.1
20260509063503 58 0 0.0 0.0 0.00 0.13 0.00 96 1011.2
20260509063024 58 0 0.0 0.0 0.00 0.13 0.00 96 1011.5
20260509062503 58 0 0.0 0.0 0.00 0.13 0.00 96 1011.6
20260509062003 59 0 0.0 0.0 0.00 0.13 0.00 96 1011.7
20260509061504 59 0 0.0 0.0 0.00 0.13 0.00 96 1011.8
20260509061003 59 0 0.0 0.0 0.00 0.13 0.00 96 1011.7
20260509060524 59 0 0.0 0.0 0.00 0.13 0.00 96 1011.6
20260509060004 59 0 0.0 0.0 0.00 0.13 0.00 96 1011.7
20260509055503 59 0 0.0 0.0 0.00 0.13 0.00 96 1011.5
20260509055003 59 0 0.0 1.7 0.00 0.13 0.00 95 1011.6
20260509054503 60 97 0.0 1.7 0.00 0.13 0.00 95 1011.5
20260509054003 60 96 0.0 0.9 0.00 0.13 0.00 95 1011.4
20260509053503 60 0 0.0 0.0 0.00 0.13 0.00 95 1011.7
20260509053024 60 0 0.0 0.0 0.00 0.13 0.00 95 1011.5
20260509052503 60 0 0.0 0.0 0.00 0.13 0.00 95 1011.6
20260509052003 60 0 0.0 0.0 0.00 0.13 0.00 95 1011.5
20260509051503 60 0 0.0 0.0 0.00 0.13 0.00 95 1011.4
20260509051003 60 0 0.0 0.9 0.00 0.13 0.00 95 1011.6
20260509050503 60 0 0.0 0.9 0.00 0.13 0.00 95 1011.4
20260509050004 60 0 0.0 0.0 0.00 0.13 0.00 95 1011.6
20260509045524 61 0 0.0 0.9 0.00 0.13 0.13 95 1011.4
20260509045003 61 0 0.0 1.7 0.00 0.13 0.13 95 1011.4
20260509044503 61 96 0.0 2.6 0.00 0.13 0.13 95 1011.4
20260509044003 61 97 0.0 2.6 0.00 0.13 0.13 95 1011.6
20260509043524 61 116 0.0 3.5 0.00 0.13 0.13 95 1011.5
20260509043024 61 75 0.9 3.5 0.00 0.13 0.13 95 1011.7
20260509042503 61 75 0.9 7.0 0.00 0.13 0.13 95 1011.9
20260509042024 61 111 0.9 7.0 0.00 0.13 0.13 95 1011.7
20260509041503 61 109 1.7 3.5 0.00 0.13 0.13 95 1011.6
20260509041003 61 62 0.9 2.6 0.00 0.13 0.13 95 1011.7
20260509040503 61 0 0.0 2.6 0.00 0.13 0.13 95 1011.4
20260509040003 61 59 0.9 2.6 0.00 0.13 0.13 95 1011.3
20260509035502 61 73 0.9 2.6 0.00 0.13 0.13 95 1011.4
20260509035002 61 103 0.0 0.9 0.00 0.13 0.13 95 1011.1
20260509034502 61 0 0.0 0.0 0.00 0.13 0.13 95 1011.2
20260509034002 62 0 0.0 1.7 0.00 0.13 0.13 95 1010.9
20260509033502 62 0 0.0 1.7 0.00 0.13 0.13 95 1010.9
20260509033002 62 132 0.0 3.5 0.00 0.13 0.13 95 1010.8
20260509032502 62 115 0.9 3.5 0.00 0.13 0.13 95 1010.9
20260509032002 62 123 0.9 2.6 0.00 0.13 0.13 95 1010.7
20260509031502 62 0 0.0 0.0 0.00 0.13 0.13 94 1010.1
20260509031002 62 0 0.0 0.0 0.00 0.13 0.13 94 1010.2
20260509030502 62 0 0.0 0.0 0.00 0.13 0.13 94 1009.7
20260509030002 62 0 0.0 0.0 0.00 0.13 0.13 94 1009.5
20260509025502 62 0 0.0 0.0 0.00 0.13 0.13 94 1010.0
20260509025002 63 0 0.0 0.0 0.00 0.13 0.13 94 1009.6
20260509024502 63 0 0.0 0.0 0.00 0.13 0.13 93 1009.6
20260509024002 63 0 0.0 0.0 0.00 0.13 0.13 93 1010.1
20260509023502 63 0 0.0 0.0 0.00 0.13 0.13 93 1009.5
20260509023023 63 0 0.0 0.9 0.00 0.13 0.13 93 1009.7